Tracking 25195 objects as of 20-Jan-2022
HD Live streaming from Space Station
objects crossing your sky now

ONEWEB-0320

Track ONEWEB-0320 now!
10-day predictions
ONEWEB-0320 is classified as:


NORAD ID: 49190
Int'l Code: 2021-083E
Perigee: 1,195.8 km
Apogee: 1,197.9 km
Inclination: 87.9 °
Period: 109.2 minutes
Semi major axis: 7567 km
RCS: Unknown
Launch date: September 14, 2021
Source: United Kingdom (UK)
Launch site: TYURATAM MISSILE AND SPACE COMPLEX (TTMTR)
aabbcc
Your satellite tracking list
Your tracking list is empty




NASA's NSSDC Master Catalog

Two Line Element Set (TLE):
1 49190U 21083E   22020.25001157  .00009757  00000-0  24689-1 0  9992
2 49190  87.9111 295.2710 0001386  81.1783 213.7039 13.18686165 19217
Source of the keplerian elements: AFSPC